Multibeam Report for AMAT03RR


Ship Name: Roger Revelle
Chief Scientist: Lyle, Mitchell
Texas A&M University
Source Organization: Rolling Deck to Repository
Start Date: 2006-03-07
End Date: 2006-04-13


View ISO Metadata

Visit the full NCEI Bathymetry Viewer


Multibeam Bathymetry

Cruise Details

Project: A site survey in support of IODP Drilling proposal 626-Full: Cenozoic Pacific
Instrument: Kongsberg EM120

Data Quality

Number of Files: 820
Number of Records: 148504
BATHYMETRY DATA Quantity Percentage
Number of Beams 28364264 100%
Number of Good Beams 26860310 94.7%
Number of Zero Beams 1503954 5.3%
Number of Flagged Beams 0 0%
AMPLITUDE DATA Quantity Percentage
Number of Beams 28364264 100%
Number of Good Beams 26860310 94.7%
Number of Zero Beams 1503954 5.3%
Number of Flagged Beams 0 0%
SIDESCAN DATA Quantity Percentage
Number of Pixels 152068096 100%
Number of Good Pixels 110899865 72.93%
Number of Zero Pixels 0 0%
Number of Flagged Pixels 41168231 27.07%

Navigation Totals

Total Time: 755.0545 hours
Total Track Length: 13373.7861 km
Average Speed: 17.712 km/hr (9.5637 knots)

Cruise Bounds

Northern Extent: 20.97275
Southern Extent: -17.484814
Western Extent: -157.63402
Eastern Extent: -110.499214

Limits

Minimum Sonar Depth 2.43 Maximum Sonar Depth 8.68
Minimum Altitude 0 Maximum Altitude 6656.6401
Minimum Depth 72.03 Maximum Depth 7052.2598
Minimum Amplitude 0 Maximum Amplitude 40.5
Minimum Sidescan 0 Maximum Sidescan 51.95

File Information

Full Resolution Bathymetry as collected (raw): 818

Files File Size Description
0001_20060308_013819_raw.all.mb56.gz 8.56MB Simrad multibeam vendor format
0001_20060318_144953_raw.all.mb56.gz 0.77MB Simrad multibeam vendor format
0002_20060308_023819_raw.all.mb56.gz 7.42MB Simrad multibeam vendor format
0002_20060318_145916_raw.all.mb56.gz 13.8KB Simrad multibeam vendor format
0003_20060308_033819_raw.all.mb56.gz 6.68MB Simrad multibeam vendor format
0004_20060308_043820_raw.all.mb56.gz 6.56MB Simrad multibeam vendor format
0005_20060308_053820_raw.all.mb56.gz 6.60MB Simrad multibeam vendor format
0006_20060308_063821_raw.all.mb56.gz 6.68MB Simrad multibeam vendor format
0007_20060308_073821_raw.all.mb56.gz 6.47MB Simrad multibeam vendor format
0008_20060308_083821_raw.all.mb56.gz 6.46MB Simrad multibeam vendor format
0009_20060308_093822_raw.all.mb56.gz 6.43MB Simrad multibeam vendor format
0010_20060308_103822_raw.all.mb56.gz 6.56MB Simrad multibeam vendor format
0011_20060308_113823_raw.all.mb56.gz 6.69MB Simrad multibeam vendor format
0012_20060308_123823_raw.all.mb56.gz 6.63MB Simrad multibeam vendor format
0013_20060308_133823_raw.all.mb56.gz 6.65MB Simrad multibeam vendor format
0014_20060308_143824_raw.all.mb56.gz 8.56MB Simrad multibeam vendor format
0015_20060308_153824_raw.all.mb56.gz 10.37MB Simrad multibeam vendor format
0016_20060308_163825_raw.all.mb56.gz 11.03MB Simrad multibeam vendor format
0017_20060308_173825_raw.all.mb56.gz 10.96MB Simrad multibeam vendor format
0018_20060308_183826_raw.all.mb56.gz 10.79MB Simrad multibeam vendor format
0019_20060308_193826_raw.all.mb56.gz 10.33MB Simrad multibeam vendor format
0020_20060308_203826_raw.all.mb56.gz 9.51MB Simrad multibeam vendor format
0021_20060308_213827_raw.all.mb56.gz 8.49MB Simrad multibeam vendor format
0022_20060308_223827_raw.all.mb56.gz 1.05MB Simrad multibeam vendor format
0023_20060308_224642_raw.all.mb56.gz 8.89MB Simrad multibeam vendor format
0024_20060308_234643_raw.all.mb56.gz 9.14MB Simrad multibeam vendor format
0025_20060309_004643_raw.all.mb56.gz 9.47MB Simrad multibeam vendor format
0026_20060309_014644_raw.all.mb56.gz 1.14MB Simrad multibeam vendor format
0033_20060309_070120_raw.all.mb56.gz 4.22MB Simrad multibeam vendor format
0034_20060309_080120_raw.all.mb56.gz 4.18MB Simrad multibeam vendor format
0035_20060309_090121_raw.all.mb56.gz 4.20MB Simrad multibeam vendor format
0036_20060309_100121_raw.all.mb56.gz 4.08MB Simrad multibeam vendor format
0037_20060309_110122_raw.all.mb56.gz 4.18MB Simrad multibeam vendor format
0038_20060309_120122_raw.all.mb56.gz 4.17MB Simrad multibeam vendor format
0039_20060309_130122_raw.all.mb56.gz 3.88MB Simrad multibeam vendor format
0040_20060309_140123_raw.all.mb56.gz 3.75MB Simrad multibeam vendor format
0041_20060309_150123_raw.all.mb56.gz 3.71MB Simrad multibeam vendor format
0042_20060309_160124_raw.all.mb56.gz 3.70MB Simrad multibeam vendor format
0043_20060309_170124_raw.all.mb56.gz 396.0KB Simrad multibeam vendor format
0044_20060309_182426_raw.all.mb56.gz 42.3KB Simrad multibeam vendor format
0045_20060309_182644_raw.all.mb56.gz 3.92MB Simrad multibeam vendor format
0046_20060309_192644_raw.all.mb56.gz 3.94MB Simrad multibeam vendor format
0047_20060309_202644_raw.all.mb56.gz 3.83MB Simrad multibeam vendor format
0048_20060309_212645_raw.all.mb56.gz 3.85MB Simrad multibeam vendor format
0049_20060309_222645_raw.all.mb56.gz 6.88MB Simrad multibeam vendor format
0050_20060309_232646_raw.all.mb56.gz 6.90MB Simrad multibeam vendor format
0051_20060310_002646_raw.all.mb56.gz 6.84MB Simrad multibeam vendor format
0052_20060310_012646_raw.all.mb56.gz 6.88MB Simrad multibeam vendor format
0053_20060310_022647_raw.all.mb56.gz 7.03MB Simrad multibeam vendor format
0054_20060310_032647_raw.all.mb56.gz 7.05MB Simrad multibeam vendor format
0055_20060310_042648_raw.all.mb56.gz 7.03MB Simrad multibeam vendor format
0056_20060310_052648_raw.all.mb56.gz 7.06MB Simrad multibeam vendor format
0057_20060310_062648_raw.all.mb56.gz 6.98MB Simrad multibeam vendor format
0058_20060310_072649_raw.all.mb56.gz 6.95MB Simrad multibeam vendor format
0059_20060310_082649_raw.all.mb56.gz 6.93MB Simrad multibeam vendor format
0060_20060310_092649_raw.all.mb56.gz 6.91MB Simrad multibeam vendor format
0061_20060310_102650_raw.all.mb56.gz 6.99MB Simrad multibeam vendor format
0062_20060310_112650_raw.all.mb56.gz 7.00MB Simrad multibeam vendor format
0063_20060310_122651_raw.all.mb56.gz 6.96MB Simrad multibeam vendor format
0064_20060310_132651_raw.all.mb56.gz 6.97MB Simrad multibeam vendor format
0065_20060310_142651_raw.all.mb56.gz 7.01MB Simrad multibeam vendor format
0066_20060310_152652_raw.all.mb56.gz 6.94MB Simrad multibeam vendor format
0067_20060310_162652_raw.all.mb56.gz 6.96MB Simrad multibeam vendor format
0068_20060310_172652_raw.all.mb56.gz 6.99MB Simrad multibeam vendor format
0069_20060310_182653_raw.all.mb56.gz 6.96MB Simrad multibeam vendor format
0070_20060310_192653_raw.all.mb56.gz 7.01MB Simrad multibeam vendor format
0071_20060310_202654_raw.all.mb56.gz 3.62MB Simrad multibeam vendor format
0072_20060310_205808_raw.all.mb56.gz 7.02MB Simrad multibeam vendor format
0073_20060310_215808_raw.all.mb56.gz 7.08MB Simrad multibeam vendor format
0074_20060310_225808_raw.all.mb56.gz 7.08MB Simrad multibeam vendor format
0075_20060310_235809_raw.all.mb56.gz 6.97MB Simrad multibeam vendor format
0076_20060311_005809_raw.all.mb56.gz 6.95MB Simrad multibeam vendor format
0077_20060311_015810_raw.all.mb56.gz 6.96MB Simrad multibeam vendor format
0078_20060311_025810_raw.all.mb56.gz 6.95MB Simrad multibeam vendor format
0079_20060311_035810_raw.all.mb56.gz 6.92MB Simrad multibeam vendor format
0080_20060311_045811_raw.all.mb56.gz 7.07MB Simrad multibeam vendor format
0081_20060311_055811_raw.all.mb56.gz 7.03MB Simrad multibeam vendor format
0082_20060311_065811_raw.all.mb56.gz 6.99MB Simrad multibeam vendor format
0083_20060311_075812_raw.all.mb56.gz 7.00MB Simrad multibeam vendor format
0084_20060311_085812_raw.all.mb56.gz 7.04MB Simrad multibeam vendor format
0085_20060311_095813_raw.all.mb56.gz 7.14MB Simrad multibeam vendor format
0086_20060311_105813_raw.all.mb56.gz 7.03MB Simrad multibeam vendor format
0087_20060311_115813_raw.all.mb56.gz 7.01MB Simrad multibeam vendor format
0088_20060311_125814_raw.all.mb56.gz 7.08MB Simrad multibeam vendor format
0089_20060311_135814_raw.all.mb56.gz 7.09MB Simrad multibeam vendor format
0090_20060311_145814_raw.all.mb56.gz 7.22MB Simrad multibeam vendor format
0091_20060311_155815_raw.all.mb56.gz 7.28MB Simrad multibeam vendor format
0092_20060311_165815_raw.all.mb56.gz 7.19MB Simrad multibeam vendor format
0093_20060311_175816_raw.all.mb56.gz 6.97MB Simrad multibeam vendor format
0094_20060311_185816_raw.all.mb56.gz 6.75MB Simrad multibeam vendor format
0095_20060311_195826_raw.all.mb56.gz 6.70MB Simrad multibeam vendor format
0096_20060311_205826_raw.all.mb56.gz 6.70MB Simrad multibeam vendor format
0097_20060311_215826_raw.all.mb56.gz 6.89MB Simrad multibeam vendor format
0098_20060311_225827_raw.all.mb56.gz 6.92MB Simrad multibeam vendor format
0099_20060311_235827_raw.all.mb56.gz 6.88MB Simrad multibeam vendor format
0100_20060312_005828_raw.all.mb56.gz 6.86MB Simrad multibeam vendor format
0101_20060312_015828_raw.all.mb56.gz 6.88MB Simrad multibeam vendor format
0102_20060312_025828_raw.all.mb56.gz 6.90MB Simrad multibeam vendor format
0103_20060312_035829_raw.all.mb56.gz 6.87MB Simrad multibeam vendor format
0104_20060312_045829_raw.all.mb56.gz 6.88MB Simrad multibeam vendor format
0105_20060312_055829_raw.all.mb56.gz 6.87MB Simrad multibeam vendor format
0106_20060312_065830_raw.all.mb56.gz 6.84MB Simrad multibeam vendor format
0107_20060312_075830_raw.all.mb56.gz 6.81MB Simrad multibeam vendor format
0108_20060312_085831_raw.all.mb56.gz 6.92MB Simrad multibeam vendor format
0109_20060312_095831_raw.all.mb56.gz 6.76MB Simrad multibeam vendor format
0110_20060312_105831_raw.all.mb56.gz 6.78MB Simrad multibeam vendor format
0111_20060312_115832_raw.all.mb56.gz 6.79MB Simrad multibeam vendor format
0112_20060312_125832_raw.all.mb56.gz 6.81MB Simrad multibeam vendor format
0113_20060312_135833_raw.all.mb56.gz 6.81MB Simrad multibeam vendor format
0114_20060312_145833_raw.all.mb56.gz 6.77MB Simrad multibeam vendor format
0115_20060312_155833_raw.all.mb56.gz 6.78MB Simrad multibeam vendor format
0116_20060312_165834_raw.all.mb56.gz 6.76MB Simrad multibeam vendor format
0117_20060312_175834_raw.all.mb56.gz 6.77MB Simrad multibeam vendor format
0118_20060312_185834_raw.all.mb56.gz 6.75MB Simrad multibeam vendor format
0119_20060312_195835_raw.all.mb56.gz 3.56MB Simrad multibeam vendor format
0120_20060312_203027_raw.all.mb56.gz 6.82MB Simrad multibeam vendor format
0121_20060312_213028_raw.all.mb56.gz 6.86MB Simrad multibeam vendor format
0122_20060312_223028_raw.all.mb56.gz 6.86MB Simrad multibeam vendor format
0123_20060312_233028_raw.all.mb56.gz 6.86MB Simrad multibeam vendor format
0124_20060313_003029_raw.all.mb56.gz 6.83MB Simrad multibeam vendor format
0125_20060313_013029_raw.all.mb56.gz 6.78MB Simrad multibeam vendor format
0126_20060313_023029_raw.all.mb56.gz 6.81MB Simrad multibeam vendor format
0127_20060313_033030_raw.all.mb56.gz 6.75MB Simrad multibeam vendor format
0128_20060313_043030_raw.all.mb56.gz 6.80MB Simrad multibeam vendor format
0129_20060313_053031_raw.all.mb56.gz 6.86MB Simrad multibeam vendor format
0130_20060313_063031_raw.all.mb56.gz 6.87MB Simrad multibeam vendor format
0131_20060313_073031_raw.all.mb56.gz 6.86MB Simrad multibeam vendor format
0132_20060313_083032_raw.all.mb56.gz 6.87MB Simrad multibeam vendor format
0133_20060313_093032_raw.all.mb56.gz 6.93MB Simrad multibeam vendor format
0134_20060313_103032_raw.all.mb56.gz 6.81MB Simrad multibeam vendor format
0135_20060313_113033_raw.all.mb56.gz 6.87MB Simrad multibeam vendor format
0136_20060313_123033_raw.all.mb56.gz 6.82MB Simrad multibeam vendor format
0137_20060313_133034_raw.all.mb56.gz 6.85MB Simrad multibeam vendor format
0138_20060313_143034_raw.all.mb56.gz 6.89MB Simrad multibeam vendor format
0139_20060313_153034_raw.all.mb56.gz 6.99MB Simrad multibeam vendor format
0140_20060313_163035_raw.all.mb56.gz 6.93MB Simrad multibeam vendor format
0141_20060313_173035_raw.all.mb56.gz 6.99MB Simrad multibeam vendor format
0142_20060313_183035_raw.all.mb56.gz 6.58MB Simrad multibeam vendor format
0143_20060313_193036_raw.all.mb56.gz 6.46MB Simrad multibeam vendor format
0144_20060313_203036_raw.all.mb56.gz 62.9KB Simrad multibeam vendor format
0145_20060313_203122_raw.all.mb56.gz 6.38MB Simrad multibeam vendor format
0146_20060313_213123_raw.all.mb56.gz 6.55MB Simrad multibeam vendor format
0147_20060313_223123_raw.all.mb56.gz 6.51MB Simrad multibeam vendor format
0148_20060313_233123_raw.all.mb56.gz 6.58MB Simrad multibeam vendor format
0149_20060314_003124_raw.all.mb56.gz 6.48MB Simrad multibeam vendor format
0150_20060314_013124_raw.all.mb56.gz 6.51MB Simrad multibeam vendor format
0151_20060314_023125_raw.all.mb56.gz 6.58MB Simrad multibeam vendor format
0152_20060314_033125_raw.all.mb56.gz 6.57MB Simrad multibeam vendor format
0153_20060314_043125_raw.all.mb56.gz 6.60MB Simrad multibeam vendor format
0154_20060314_053126_raw.all.mb56.gz 6.57MB Simrad multibeam vendor format
0155_20060314_063126_raw.all.mb56.gz 6.59MB Simrad multibeam vendor format
0156_20060314_073126_raw.all.mb56.gz 6.66MB Simrad multibeam vendor format
0157_20060314_083127_raw.all.mb56.gz 6.63MB Simrad multibeam vendor format
0158_20060314_093127_raw.all.mb56.gz 6.70MB Simrad multibeam vendor format
0159_20060314_103128_raw.all.mb56.gz 6.65MB Simrad multibeam vendor format
0160_20060314_113128_raw.all.mb56.gz 6.68MB Simrad multibeam vendor format
0161_20060314_123128_raw.all.mb56.gz 6.67MB Simrad multibeam vendor format
0162_20060314_133129_raw.all.mb56.gz 6.70MB Simrad multibeam vendor format
0163_20060314_143129_raw.all.mb56.gz 6.66MB Simrad multibeam vendor format
0164_20060314_153130_raw.all.mb56.gz 6.70MB Simrad multibeam vendor format
0165_20060314_163130_raw.all.mb56.gz 6.68MB Simrad multibeam vendor format
0166_20060314_173130_raw.all.mb56.gz 6.72MB Simrad multibeam vendor format
0167_20060314_183131_raw.all.mb56.gz 6.69MB Simrad multibeam vendor format
0168_20060314_193131_raw.all.mb56.gz 6.67MB Simrad multibeam vendor format
0169_20060314_203131_raw.all.mb56.gz 6.70MB Simrad multibeam vendor format
0170_20060314_213132_raw.all.mb56.gz 3.32MB Simrad multibeam vendor format
0171_20060314_220138_raw.all.mb56.gz 6.51MB Simrad multibeam vendor format
0172_20060314_230138_raw.all.mb56.gz 6.51MB Simrad multibeam vendor format
0173_20060315_000139_raw.all.mb56.gz 6.65MB Simrad multibeam vendor format
0174_20060315_010139_raw.all.mb56.gz 6.60MB Simrad multibeam vendor format
0175_20060315_020140_raw.all.mb56.gz 6.65MB Simrad multibeam vendor format
0176_20060315_030140_raw.all.mb56.gz 6.63MB Simrad multibeam vendor format
0177_20060315_040140_raw.all.mb56.gz 6.67MB Simrad multibeam vendor format
0178_20060315_050141_raw.all.mb56.gz 6.69MB Simrad multibeam vendor format
0179_20060315_060141_raw.all.mb56.gz 6.72MB Simrad multibeam vendor format
0180_20060315_070141_raw.all.mb56.gz 6.69MB Simrad multibeam vendor format
0181_20060315_080142_raw.all.mb56.gz 6.70MB Simrad multibeam vendor format
0182_20060315_090142_raw.all.mb56.gz 6.67MB Simrad multibeam vendor format
0183_20060315_100143_raw.all.mb56.gz 6.64MB Simrad multibeam vendor format
0184_20060315_110143_raw.all.mb56.gz 6.67MB Simrad multibeam vendor format
0185_20060315_120143_raw.all.mb56.gz 6.58MB Simrad multibeam vendor format
0186_20060315_130144_raw.all.mb56.gz 6.55MB Simrad multibeam vendor format
0187_20060315_140144_raw.all.mb56.gz 6.56MB Simrad multibeam vendor format
0188_20060315_150144_raw.all.mb56.gz 6.56MB Simrad multibeam vendor format
0189_20060315_160145_raw.all.mb56.gz 6.54MB Simrad multibeam vendor format
0190_20060315_170145_raw.all.mb56.gz 6.55MB Simrad multibeam vendor format
0191_20060315_180146_raw.all.mb56.gz 1.25MB Simrad multibeam vendor format
0192_20060315_181336_raw.all.mb56.gz 6.53MB Simrad multibeam vendor format
0193_20060315_191337_raw.all.mb56.gz 6.54MB Simrad multibeam vendor format
0194_20060315_201337_raw.all.mb56.gz 6.55MB Simrad multibeam vendor format
0195_20060315_211338_raw.all.mb56.gz 6.58MB Simrad multibeam vendor format
0196_20060315_221338_raw.all.mb56.gz 6.56MB Simrad multibeam vendor format
0197_20060315_231338_raw.all.mb56.gz 6.57MB Simrad multibeam vendor format
0198_20060316_001339_raw.all.mb56.gz 6.52MB Simrad multibeam vendor format
0199_20060316_011339_raw.all.mb56.gz 6.56MB Simrad multibeam vendor format
0200_20060316_021339_raw.all.mb56.gz 6.53MB Simrad multibeam vendor format
0201_20060316_031340_raw.all.mb56.gz 6.53MB Simrad multibeam vendor format
0202_20060316_041340_raw.all.mb56.gz 6.52MB Simrad multibeam vendor format
0203_20060316_051341_raw.all.mb56.gz 6.52MB Simrad multibeam vendor format
0204_20060316_061341_raw.all.mb56.gz 6.54MB Simrad multibeam vendor format
0205_20060316_071341_raw.all.mb56.gz 6.53MB Simrad multibeam vendor format
0206_20060316_081342_raw.all.mb56.gz 6.54MB Simrad multibeam vendor format
0207_20060316_091343_raw.all.mb56.gz 6.50MB Simrad multibeam vendor format
0208_20060316_101343_raw.all.mb56.gz 6.50MB Simrad multibeam vendor format
0209_20060316_111343_raw.all.mb56.gz 6.51MB Simrad multibeam vendor format
0210_20060316_121344_raw.all.mb56.gz 6.48MB Simrad multibeam vendor format
0211_20060316_131344_raw.all.mb56.gz 6.47MB Simrad multibeam vendor format
0212_20060316_141344_raw.all.mb56.gz 6.51MB Simrad multibeam vendor format
0213_20060316_151345_raw.all.mb56.gz 6.54MB Simrad multibeam vendor format
0214_20060316_161345_raw.all.mb56.gz 6.57MB Simrad multibeam vendor format
0215_20060316_171346_raw.all.mb56.gz 6.59MB Simrad multibeam vendor format
0216_20060316_181346_raw.all.mb56.gz 6.59MB Simrad multibeam vendor format
0217_20060316_191346_raw.all.mb56.gz 6.60MB Simrad multibeam vendor format
0218_20060316_201347_raw.all.mb56.gz 6.57MB Simrad multibeam vendor format
0219_20060316_211347_raw.all.mb56.gz 6.53MB Simrad multibeam vendor format
0220_20060316_221347_raw.all.mb56.gz 3.63MB Simrad multibeam vendor format
0221_20060316_224719_raw.all.mb56.gz 283.9KB Simrad multibeam vendor format
0222_20060318_063000_raw.all.mb56.gz 6.52MB Simrad multibeam vendor format
0223_20060318_073001_raw.all.mb56.gz 6.60MB Simrad multibeam vendor format
0224_20060318_083001_raw.all.mb56.gz 6.59MB Simrad multibeam vendor format
0225_20060318_093001_raw.all.mb56.gz 6.61MB Simrad multibeam vendor format
0226_20060318_103002_raw.all.mb56.gz 6.59MB Simrad multibeam vendor format
0227_20060318_113002_raw.all.mb56.gz 6.60MB Simrad multibeam vendor format
0228_20060318_123002_raw.all.mb56.gz 6.59MB Simrad multibeam vendor format
0229_20060318_133003_raw.all.mb56.gz 6.47MB Simrad multibeam vendor format
0230_20060318_150025_raw.all.mb56.gz 6.94MB Simrad multibeam vendor format
0231_20060318_160025_raw.all.mb56.gz 0.96MB Simrad multibeam vendor format
0232_20060318_160912_raw.all.mb56.gz 6.57MB Simrad multibeam vendor format
0233_20060318_170912_raw.all.mb56.gz 6.62MB Simrad multibeam vendor format
0234_20060318_180913_raw.all.mb56.gz 6.62MB Simrad multibeam vendor format
0235_20060318_190913_raw.all.mb56.gz 6.63MB Simrad multibeam vendor format
0236_20060318_200913_raw.all.mb56.gz 6.64MB Simrad multibeam vendor format
0237_20060318_210914_raw.all.mb56.gz 6.63MB Simrad multibeam vendor format
0238_20060318_220914_raw.all.mb56.gz 6.64MB Simrad multibeam vendor format
0239_20060318_230915_raw.all.mb56.gz 6.62MB Simrad multibeam vendor format
0240_20060319_000915_raw.all.mb56.gz 6.63MB Simrad multibeam vendor format
0241_20060319_010915_raw.all.mb56.gz 6.63MB Simrad multibeam vendor format
0242_20060319_020916_raw.all.mb56.gz 6.62MB Simrad multibeam vendor format
0243_20060319_030916_raw.all.mb56.gz 6.65MB Simrad multibeam vendor format
0244_20060319_040916_raw.all.mb56.gz 6.65MB Simrad multibeam vendor format
0245_20060319_050917_raw.all.mb56.gz 6.62MB Simrad multibeam vendor format
0246_20060319_060917_raw.all.mb56.gz 6.60MB Simrad multibeam vendor format
0247_20060319_070918_raw.all.mb56.gz 6.60MB Simrad multibeam vendor format
0248_20060319_080918_raw.all.mb56.gz 6.59MB Simrad multibeam vendor format
0249_20060319_090918_raw.all.mb56.gz 6.61MB Simrad multibeam vendor format
0250_20060319_100919_raw.all.mb56.gz 6.61MB Simrad multibeam vendor format
0251_20060319_110919_raw.all.mb56.gz 6.66MB Simrad multibeam vendor format
0252_20060319_120919_raw.all.mb56.gz 6.63MB Simrad multibeam vendor format
0253_20060319_130920_raw.all.mb56.gz 6.63MB Simrad multibeam vendor format
0254_20060319_140920_raw.all.mb56.gz 6.63MB Simrad multibeam vendor format
0255_20060319_150921_raw.all.mb56.gz 6.64MB Simrad multibeam vendor format
0256_20060319_160921_raw.all.mb56.gz 5.63MB Simrad multibeam vendor format
0257_20060319_170028_raw.all.mb56.gz 6.59MB Simrad multibeam vendor format
0258_20060319_180029_raw.all.mb56.gz 6.65MB Simrad multibeam vendor format
0259_20060319_190029_raw.all.mb56.gz 6.68MB Simrad multibeam vendor format
0260_20060319_200030_raw.all.mb56.gz 6.67MB Simrad multibeam vendor format
0261_20060319_210030_raw.all.mb56.gz 6.68MB Simrad multibeam vendor format
0262_20060319_220030_raw.all.mb56.gz 6.69MB Simrad multibeam vendor format
0263_20060319_230031_raw.all.mb56.gz 6.70MB Simrad multibeam vendor format
0264_20060320_000031_raw.all.mb56.gz 6.67MB Simrad multibeam vendor format
0265_20060320_010031_raw.all.mb56.gz 2.77MB Simrad multibeam vendor format
0266_20060320_012545_raw.all.mb56.gz 6.68MB Simrad multibeam vendor format
0267_20060320_022546_raw.all.mb56.gz 6.69MB Simrad multibeam vendor format
0268_20060320_032546_raw.all.mb56.gz 6.68MB Simrad multibeam vendor format
0269_20060320_042547_raw.all.mb56.gz 6.66MB Simrad multibeam vendor format
0270_20060320_052547_raw.all.mb56.gz 6.69MB Simrad multibeam vendor format
0271_20060320_062547_raw.all.mb56.gz 6.68MB Simrad multibeam vendor format
0272_20060320_072548_raw.all.mb56.gz 6.65MB Simrad multibeam vendor format
0273_20060320_082548_raw.all.mb56.gz 6.65MB Simrad multibeam vendor format
0274_20060320_092548_raw.all.mb56.gz 6.64MB Simrad multibeam vendor format
0275_20060320_102549_raw.all.mb56.gz 6.61MB Simrad multibeam vendor format
0276_20060320_112549_raw.all.mb56.gz 6.60MB Simrad multibeam vendor format
0277_20060320_122550_raw.all.mb56.gz 6.59MB Simrad multibeam vendor format
0278_20060320_132550_raw.all.mb56.gz 6.52MB Simrad multibeam vendor format
0279_20060320_142550_raw.all.mb56.gz 6.50MB Simrad multibeam vendor format
0280_20060320_152551_raw.all.mb56.gz 6.54MB Simrad multibeam vendor format
0281_20060320_162551_raw.all.mb56.gz 6.53MB Simrad multibeam vendor format
0282_20060320_172551_raw.all.mb56.gz 6.57MB Simrad multibeam vendor format
0283_20060320_182552_raw.all.mb56.gz 6.57MB Simrad multibeam vendor format
0284_20060320_192552_raw.all.mb56.gz 290.4KB Simrad multibeam vendor format
0285_20060320_192848_raw.all.mb56.gz 6.51MB Simrad multibeam vendor format
0286_20060320_202848_raw.all.mb56.gz 2.75MB Simrad multibeam vendor format
0287_20060320_205414_raw.all.mb56.gz 1.19MB Simrad multibeam vendor format
0288_20060320_210536_raw.all.mb56.gz 6.51MB Simrad multibeam vendor format
0289_20060320_220537_raw.all.mb56.gz 6.57MB Simrad multibeam vendor format
0290_20060320_230537_raw.all.mb56.gz 6.58MB Simrad multibeam vendor format
0291_20060321_000537_raw.all.mb56.gz 6.58MB Simrad multibeam vendor format
0292_20060321_010538_raw.all.mb56.gz 6.56MB Simrad multibeam vendor format
0293_20060321_020538_raw.all.mb56.gz 6.57MB Simrad multibeam vendor format
0294_20060321_030539_raw.all.mb56.gz 6.57MB Simrad multibeam vendor format
0295_20060321_040539_raw.all.mb56.gz 6.58MB Simrad multibeam vendor format
0296_20060321_050539_raw.all.mb56.gz 6.56MB Simrad multibeam vendor format
0297_20060321_060540_raw.all.mb56.gz 6.59MB Simrad multibeam vendor format
0298_20060321_070540_raw.all.mb56.gz 6.59MB Simrad multibeam vendor format
0299_20060321_080540_raw.all.mb56.gz 6.56MB Simrad multibeam vendor format
0300_20060321_090541_raw.all.mb56.gz 6.57MB Simrad multibeam vendor format
0301_20060321_100541_raw.all.mb56.gz 6.60MB Simrad multibeam vendor format
0302_20060321_110542_raw.all.mb56.gz 6.57MB Simrad multibeam vendor format
0303_20060321_120542_raw.all.mb56.gz 6.55MB Simrad multibeam vendor format
0304_20060321_130542_raw.all.mb56.gz 6.55MB Simrad multibeam vendor format
0305_20060321_140543_raw.all.mb56.gz 6.56MB Simrad multibeam vendor format
0306_20060321_150543_raw.all.mb56.gz 6.54MB Simrad multibeam vendor format
0307_20060321_160543_raw.all.mb56.gz 6.52MB Simrad multibeam vendor format
0308_20060321_170544_raw.all.mb56.gz 6.50MB Simrad multibeam vendor format
0309_20060321_180544_raw.all.mb56.gz 6.45MB Simrad multibeam vendor format
0310_20060321_190545_raw.all.mb56.gz 6.47MB Simrad multibeam vendor format
0311_20060321_200545_raw.all.mb56.gz 6.50MB Simrad multibeam vendor format
0312_20060321_210545_raw.all.mb56.gz 6.48MB Simrad multibeam vendor format
0313_20060321_220546_raw.all.mb56.gz 6.49MB Simrad multibeam vendor format
0314_20060321_230546_raw.all.mb56.gz 6.49MB Simrad multibeam vendor format
0315_20060322_000546_raw.all.mb56.gz 4.61MB Simrad multibeam vendor format
0316_20060322_005015_raw.all.mb56.gz 6.46MB Simrad multibeam vendor format
0317_20060322_015016_raw.all.mb56.gz 1.77MB Simrad multibeam vendor format
0318_20060322_100154_raw.all.mb56.gz 6.52MB Simrad multibeam vendor format
0319_20060322_110154_raw.all.mb56.gz 6.56MB Simrad multibeam vendor format
0320_20060322_120155_raw.all.mb56.gz 6.58MB Simrad multibeam vendor format
0321_20060322_130155_raw.all.mb56.gz 6.58MB Simrad multibeam vendor format
0322_20060322_140156_raw.all.mb56.gz 6.54MB Simrad multibeam vendor format
0323_20060322_150156_raw.all.mb56.gz 6.51MB Simrad multibeam vendor format
0324_20060322_160156_raw.all.mb56.gz 6.52MB Simrad multibeam vendor format
0325_20060322_170157_raw.all.mb56.gz 6.49MB Simrad multibeam vendor format
0326_20060322_180157_raw.all.mb56.gz 6.51MB Simrad multibeam vendor format
0327_20060322_190157_raw.all.mb56.gz 6.50MB Simrad multibeam vendor format
0328_20060322_200158_raw.all.mb56.gz 6.52MB Simrad multibeam vendor format
0329_20060322_210158_raw.all.mb56.gz 6.47MB Simrad multibeam vendor format
0330_20060322_220159_raw.all.mb56.gz 5.37MB Simrad multibeam vendor format
0331_20060322_225148_raw.all.mb56.gz 6.57MB Simrad multibeam vendor format
0332_20060322_235149_raw.all.mb56.gz 6.49MB Simrad multibeam vendor format
0333_20060323_005149_raw.all.mb56.gz 6.59MB Simrad multibeam vendor format
0334_20060323_015150_raw.all.mb56.gz 6.58MB Simrad multibeam vendor format
0335_20060323_025150_raw.all.mb56.gz 6.56MB Simrad multibeam vendor format
0336_20060323_035150_raw.all.mb56.gz 6.59MB Simrad multibeam vendor format
0337_20060323_045151_raw.all.mb56.gz 6.61MB Simrad multibeam vendor format
0338_20060323_055151_raw.all.mb56.gz 6.64MB Simrad multibeam vendor format
0339_20060323_065151_raw.all.mb56.gz 6.65MB Simrad multibeam vendor format
0340_20060323_075152_raw.all.mb56.gz 6.65MB Simrad multibeam vendor format
0341_20060323_085152_raw.all.mb56.gz 6.63MB Simrad multibeam vendor format
0342_20060323_095153_raw.all.mb56.gz 0.89MB Simrad multibeam vendor format
0343_20060323_100004_raw.all.mb56.gz 6.57MB Simrad multibeam vendor format
0344_20060323_110004_raw.all.mb56.gz 89.86MB Simrad multibeam vendor format
0345_20060324_004303_raw.all.mb56.gz 4.08MB Simrad multibeam vendor format
0346_20060324_073518_raw.all.mb56.gz 6.41MB Simrad multibeam vendor format
0347_20060324_083518_raw.all.mb56.gz 2.64MB Simrad multibeam vendor format
0348_20060324_090010_raw.all.mb56.gz 6.40MB Simrad multibeam vendor format
0349_20060324_100010_raw.all.mb56.gz 6.55MB Simrad multibeam vendor format
0350_20060324_110010_raw.all.mb56.gz 6.55MB Simrad multibeam vendor format
0351_20060324_120011_raw.all.mb56.gz 6.49MB Simrad multibeam vendor format
0352_20060324_130011_raw.all.mb56.gz 6.53MB Simrad multibeam vendor format
0353_20060324_140011_raw.all.mb56.gz 6.47MB Simrad multibeam vendor format
0354_20060324_150012_raw.all.mb56.gz 6.48MB Simrad multibeam vendor format
0355_20060324_160012_raw.all.mb56.gz 6.48MB Simrad multibeam vendor format
0356_20060324_170013_raw.all.mb56.gz 6.44MB Simrad multibeam vendor format
0357_20060324_180013_raw.all.mb56.gz 6.40MB Simrad multibeam vendor format
0358_20060324_190013_raw.all.mb56.gz 6.38MB Simrad multibeam vendor format
0359_20060324_200014_raw.all.mb56.gz 6.40MB Simrad multibeam vendor format
0360_20060324_210014_raw.all.mb56.gz 6.37MB Simrad multibeam vendor format
0361_20060324_220014_raw.all.mb56.gz 6.40MB Simrad multibeam vendor format
0362_20060324_230015_raw.all.mb56.gz 6.37MB Simrad multibeam vendor format
0363_20060325_000015_raw.all.mb56.gz 6.37MB Simrad multibeam vendor format
0364_20060325_010016_raw.all.mb56.gz 6.44MB Simrad multibeam vendor format
0365_20060325_020016_raw.all.mb56.gz 6.44MB Simrad multibeam vendor format
0366_20060325_030016_raw.all.mb56.gz 6.42MB Simrad multibeam vendor format
0367_20060325_040017_raw.all.mb56.gz 6.41MB Simrad multibeam vendor format
0368_20060325_050017_raw.all.mb56.gz 6.36MB Simrad multibeam vendor format
0369_20060325_060017_raw.all.mb56.gz 6.35MB Simrad multibeam vendor format
0370_20060325_070018_raw.all.mb56.gz 6.37MB Simrad multibeam vendor format
0371_20060325_080018_raw.all.mb56.gz 6.35MB Simrad multibeam vendor format
0372_20060325_090019_raw.all.mb56.gz 6.35MB Simrad multibeam vendor format
0373_20060325_100019_raw.all.mb56.gz 6.38MB Simrad multibeam vendor format
0374_20060325_110019_raw.all.mb56.gz 6.33MB Simrad multibeam vendor format
0375_20060325_120020_raw.all.mb56.gz 6.37MB Simrad multibeam vendor format
0376_20060325_130020_raw.all.mb56.gz 2.21MB Simrad multibeam vendor format
0379_20060325_132109_raw.all.mb56.gz 5.23MB Simrad multibeam vendor format
0380_20060325_141118_raw.all.mb56.gz 1.25MB Simrad multibeam vendor format
0381_20060325_142353_raw.all.mb56.gz 2.48MB Simrad multibeam vendor format
0382_20060325_144805_raw.all.mb56.gz 0.89MB Simrad multibeam vendor format
0384_20060325_145707_raw.all.mb56.gz 6.27MB Simrad multibeam vendor format
0385_20060325_155707_raw.all.mb56.gz 6.38MB Simrad multibeam vendor format
0386_20060325_165707_raw.all.mb56.gz 1.40MB Simrad multibeam vendor format
0387_20060325_171024_raw.all.mb56.gz 0.95MB Simrad multibeam vendor format
0388_20060325_172000_raw.all.mb56.gz 2.01MB Simrad multibeam vendor format
0389_20060325_173913_raw.all.mb56.gz 0.85MB Simrad multibeam vendor format
0390_20060325_174740_raw.all.mb56.gz 6.31MB Simrad multibeam vendor format
0391_20060325_184740_raw.all.mb56.gz 4.33MB Simrad multibeam vendor format
0392_20060325_192849_raw.all.mb56.gz 3.31MB Simrad multibeam vendor format
0393_20060325_200026_raw.all.mb56.gz 1.46MB Simrad multibeam vendor format
0394_20060325_201442_raw.all.mb56.gz 3.94MB Simrad multibeam vendor format
0395_20060325_205231_raw.all.mb56.gz 1.38MB Simrad multibeam vendor format
0396_20060325_210610_raw.all.mb56.gz 6.31MB Simrad multibeam vendor format
0397_20060325_220610_raw.all.mb56.gz 1.98MB Simrad multibeam vendor format
0398_20060325_222455_raw.all.mb56.gz 3.48MB Simrad multibeam vendor format
0399_20060325_225838_raw.all.mb56.gz 6.38MB Simrad multibeam vendor format
0400_20060325_235838_raw.all.mb56.gz 1.24MB Simrad multibeam vendor format
0401_20060326_001014_raw.all.mb56.gz 6.30MB Simrad multibeam vendor format
0402_20060326_011014_raw.all.mb56.gz 6.39MB Simrad multibeam vendor format
0403_20060326_021014_raw.all.mb56.gz 6.37MB Simrad multibeam vendor format
0404_20060326_031015_raw.all.mb56.gz 123.3KB Simrad multibeam vendor format
0405_20060326_082040_raw.all.mb56.gz 6.31MB Simrad multibeam vendor format
0406_20060326_092041_raw.all.mb56.gz 6.37MB Simrad multibeam vendor format
0407_20060326_102041_raw.all.mb56.gz 6.40MB Simrad multibeam vendor format
0408_20060326_112042_raw.all.mb56.gz 6.46MB Simrad multibeam vendor format
0409_20060326_122042_raw.all.mb56.gz 6.49MB Simrad multibeam vendor format
0410_20060326_132042_raw.all.mb56.gz 6.47MB Simrad multibeam vendor format
0411_20060326_142043_raw.all.mb56.gz 6.46MB Simrad multibeam vendor format
0412_20060326_152043_raw.all.mb56.gz 6.40MB Simrad multibeam vendor format
0413_20060326_162044_raw.all.mb56.gz 6.47MB Simrad multibeam vendor format
0414_20060326_172044_raw.all.mb56.gz 6.49MB Simrad multibeam vendor format
0415_20060326_182044_raw.all.mb56.gz 6.50MB Simrad multibeam vendor format
0416_20060326_192045_raw.all.mb56.gz 4.12MB Simrad multibeam vendor format
0417_20060326_195914_raw.all.mb56.gz 6.46MB Simrad multibeam vendor format
0418_20060326_205915_raw.all.mb56.gz 6.48MB Simrad multibeam vendor format
0419_20060326_215915_raw.all.mb56.gz 6.46MB Simrad multibeam vendor format
0420_20060326_225916_raw.all.mb56.gz 6.45MB Simrad multibeam vendor format
0421_20060326_235916_raw.all.mb56.gz 6.43MB Simrad multibeam vendor format
0422_20060327_005916_raw.all.mb56.gz 6.41MB Simrad multibeam vendor format
0423_20060327_015917_raw.all.mb56.gz 6.42MB Simrad multibeam vendor format
0424_20060327_025917_raw.all.mb56.gz 6.55MB Simrad multibeam vendor format
0425_20060327_035917_raw.all.mb56.gz 6.52MB Simrad multibeam vendor format
0426_20060327_045918_raw.all.mb56.gz 6.46MB Simrad multibeam vendor format
0427_20060327_055918_raw.all.mb56.gz 6.39MB Simrad multibeam vendor format
0428_20060327_065919_raw.all.mb56.gz 6.54MB Simrad multibeam vendor format
0429_20060327_075919_raw.all.mb56.gz 6.54MB Simrad multibeam vendor format
0430_20060327_085919_raw.all.mb56.gz 6.59MB Simrad multibeam vendor format
0431_20060327_095920_raw.all.mb56.gz 6.56MB Simrad multibeam vendor format
0432_20060327_105920_raw.all.mb56.gz 6.59MB Simrad multibeam vendor format
0433_20060327_115920_raw.all.mb56.gz 6.60MB Simrad multibeam vendor format
0434_20060327_125921_raw.all.mb56.gz 6.59MB Simrad multibeam vendor format
0435_20060327_135921_raw.all.mb56.gz 6.54MB Simrad multibeam vendor format
0436_20060327_145922_raw.all.mb56.gz 6.54MB Simrad multibeam vendor format
0437_20060327_155922_raw.all.mb56.gz 6.65MB Simrad multibeam vendor format
0438_20060327_165922_raw.all.mb56.gz 6.64MB Simrad multibeam vendor format
0439_20060327_175923_raw.all.mb56.gz 6.57MB Simrad multibeam vendor format
0440_20060327_185923_raw.all.mb56.gz 6.72MB Simrad multibeam vendor format
0441_20060327_195923_raw.all.mb56.gz 7.30MB Simrad multibeam vendor format
0442_20060327_205924_raw.all.mb56.gz 2.42MB Simrad multibeam vendor format
0443_20060327_211935_raw.all.mb56.gz 7.38MB Simrad multibeam vendor format
0444_20060327_221935_raw.all.mb56.gz 7.33MB Simrad multibeam vendor format
0445_20060327_231935_raw.all.mb56.gz 7.22MB Simrad multibeam vendor format
0446_20060328_001936_raw.all.mb56.gz 1.58MB Simrad multibeam vendor format
0447_20060328_003228_raw.all.mb56.gz 5.15MB Simrad multibeam vendor format
0448_20060328_011444_raw.all.mb56.gz 7.27MB Simrad multibeam vendor format
0449_20060328_021445_raw.all.mb56.gz 6.94MB Simrad multibeam vendor format
0450_20060328_031216_raw.all.mb56.gz 1.31MB Simrad multibeam vendor format
0451_20060328_032312_raw.all.mb56.gz 5.98MB Simrad multibeam vendor format
0452_20060328_041236_raw.all.mb56.gz 2.54MB Simrad multibeam vendor format
0453_20060328_043329_raw.all.mb56.gz 7.38MB Simrad multibeam vendor format
0454_20060328_053329_raw.all.mb56.gz 7.18MB Simrad multibeam vendor format
0455_20060328_063330_raw.all.mb56.gz 1.31MB Simrad multibeam vendor format
0456_20060328_064438_raw.all.mb56.gz 7.14MB Simrad multibeam vendor format
0457_20060328_074409_raw.all.mb56.gz 1.43MB Simrad multibeam vendor format
0458_20060328_075618_raw.all.mb56.gz 7.32MB Simrad multibeam vendor format
0459_20060328_085618_raw.all.mb56.gz 7.38MB Simrad multibeam vendor format
0460_20060328_095619_raw.all.mb56.gz 6.20MB Simrad multibeam vendor format
0461_20060328_110017_raw.all.mb56.gz 1.70MB Simrad multibeam vendor format
0462_20060328_182224_raw.all.mb56.gz 6.43MB Simrad multibeam vendor format
0463_20060328_192225_raw.all.mb56.gz 6.47MB Simrad multibeam vendor format
0464_20060328_202225_raw.all.mb56.gz 6.57MB Simrad multibeam vendor format
0465_20060328_212225_raw.all.mb56.gz 6.61MB Simrad multibeam vendor format
0466_20060328_222226_raw.all.mb56.gz 6.48MB Simrad multibeam vendor format
0467_20060328_232226_raw.all.mb56.gz 6.45MB Simrad multibeam vendor format
0468_20060329_002226_raw.all.mb56.gz 6.48MB Simrad multibeam vendor format
0469_20060329_012227_raw.all.mb56.gz 6.48MB Simrad multibeam vendor format
0470_20060329_022227_raw.all.mb56.gz 6.46MB Simrad multibeam vendor format
0471_20060329_032228_raw.all.mb56.gz 6.48MB Simrad multibeam vendor format
0472_20060329_042228_raw.all.mb56.gz 6.46MB Simrad multibeam vendor format
0473_20060329_052228_raw.all.mb56.gz 6.42MB Simrad multibeam vendor format
0474_20060329_062229_raw.all.mb56.gz 6.42MB Simrad multibeam vendor format
0475_20060329_072229_raw.all.mb56.gz 6.42MB Simrad multibeam vendor format
0476_20060329_082229_raw.all.mb56.gz 6.43MB Simrad multibeam vendor format
0477_20060329_092230_raw.all.mb56.gz 6.44MB Simrad multibeam vendor format
0478_20060329_102230_raw.all.mb56.gz 6.45MB Simrad multibeam vendor format
0479_20060329_112231_raw.all.mb56.gz 6.45MB Simrad multibeam vendor format
0480_20060329_122231_raw.all.mb56.gz 6.41MB Simrad multibeam vendor format
0481_20060329_132231_raw.all.mb56.gz 6.42MB Simrad multibeam vendor format
0482_20060329_142232_raw.all.mb56.gz 6.45MB Simrad multibeam vendor format
0483_20060329_152232_raw.all.mb56.gz 6.48MB Simrad multibeam vendor format
0484_20060329_162232_raw.all.mb56.gz 6.50MB Simrad multibeam vendor format
0485_20060329_172233_raw.all.mb56.gz 6.46MB Simrad multibeam vendor format
0486_20060329_182233_raw.all.mb56.gz 6.46MB Simrad multibeam vendor format
0487_20060329_192234_raw.all.mb56.gz 6.46MB Simrad multibeam vendor format
0488_20060329_202234_raw.all.mb56.gz 6.41MB Simrad multibeam vendor format
0489_20060329_212234_raw.all.mb56.gz 6.40MB Simrad multibeam vendor format
0490_20060329_222235_raw.all.mb56.gz 6.42MB Simrad multibeam vendor format
0491_20060329_232235_raw.all.mb56.gz 6.43MB Simrad multibeam vendor format
0492_20060330_002235_raw.all.mb56.gz 6.46MB Simrad multibeam vendor format
0493_20060330_012236_raw.all.mb56.gz 6.45MB Simrad multibeam vendor format
0494_20060330_022236_raw.all.mb56.gz 6.49MB Simrad multibeam vendor format
0495_20060330_032237_raw.all.mb56.gz 6.46MB Simrad multibeam vendor format
0496_20060330_042237_raw.all.mb56.gz 6.48MB Simrad multibeam vendor format
0497_20060330_052237_raw.all.mb56.gz 6.44MB Simrad multibeam vendor format
0498_20060330_062238_raw.all.mb56.gz 6.48MB Simrad multibeam vendor format
0499_20060330_072238_raw.all.mb56.gz 6.49MB Simrad multibeam vendor format
0500_20060330_082239_raw.all.mb56.gz 6.48MB Simrad multibeam vendor format
0501_20060330_092239_raw.all.mb56.gz 6.53MB Simrad multibeam vendor format
0502_20060330_102239_raw.all.mb56.gz 6.49MB Simrad multibeam vendor format
0503_20060330_112240_raw.all.mb56.gz 6.49MB Simrad multibeam vendor format
0504_20060330_122240_raw.all.mb56.gz 6.50MB Simrad multibeam vendor format
0505_20060330_132240_raw.all.mb56.gz 6.46MB Simrad multibeam vendor format
0506_20060330_142241_raw.all.mb56.gz 6.46MB Simrad multibeam vendor format
0507_20060330_152241_raw.all.mb56.gz 6.42MB Simrad multibeam vendor format
0508_20060330_162242_raw.all.mb56.gz 6.41MB Simrad multibeam vendor format
0509_20060330_172242_raw.all.mb56.gz 6.42MB Simrad multibeam vendor format
0510_20060330_182242_raw.all.mb56.gz 6.44MB Simrad multibeam vendor format
0511_20060330_192243_raw.all.mb56.gz 6.44MB Simrad multibeam vendor format
0512_20060330_202243_raw.all.mb56.gz 6.40MB Simrad multibeam vendor format
0513_20060330_212243_raw.all.mb56.gz 6.41MB Simrad multibeam vendor format
0514_20060330_222244_raw.all.mb56.gz 6.45MB Simrad multibeam vendor format
0515_20060330_232244_raw.all.mb56.gz 6.44MB Simrad multibeam vendor format
0516_20060331_002245_raw.all.mb56.gz 6.44MB Simrad multibeam vendor format
0517_20060331_012245_raw.all.mb56.gz 6.36MB Simrad multibeam vendor format
0518_20060331_022245_raw.all.mb56.gz 6.54MB Simrad multibeam vendor format
0519_20060331_032246_raw.all.mb56.gz 6.60MB Simrad multibeam vendor format
0520_20060331_042246_raw.all.mb56.gz 3.99MB Simrad multibeam vendor format
0522_20060331_045945_raw.all.mb56.gz 2.62MB Simrad multibeam vendor format
0523_20060331_052423_raw.all.mb56.gz 4.84MB Simrad multibeam vendor format
0524_20060331_060955_raw.all.mb56.gz 7.35MB Simrad multibeam vendor format
0525_20060331_070955_raw.all.mb56.gz 1.63MB Simrad multibeam vendor format
0526_20060331_072309_raw.all.mb56.gz 7.35MB Simrad multibeam vendor format
0527_20060331_082310_raw.all.mb56.gz 7.37MB Simrad multibeam vendor format
0528_20060331_092310_raw.all.mb56.gz 1.00MB Simrad multibeam vendor format
0529_20060331_093120_raw.all.mb56.gz 1.71MB Simrad multibeam vendor format
0530_20060331_094551_raw.all.mb56.gz 3.71MB Simrad multibeam vendor format
0531_20060331_101636_raw.all.mb56.gz 1.65MB Simrad multibeam vendor format
0532_20060331_103016_raw.all.mb56.gz 7.38MB Simrad multibeam vendor format
0533_20060331_113016_raw.all.mb56.gz 7.38MB Simrad multibeam vendor format
0534_20060331_123017_raw.all.mb56.gz 1.99MB Simrad multibeam vendor format
0535_20060331_124642_raw.all.mb56.gz 1.23MB Simrad multibeam vendor format
0536_20060331_125712_raw.all.mb56.gz 3.82MB Simrad multibeam vendor format
0538_20060331_132900_raw.all.mb56.gz 1.12MB Simrad multibeam vendor format
0539_20060331_133832_raw.all.mb56.gz 7.34MB Simrad multibeam vendor format
0540_20060331_143832_raw.all.mb56.gz 4.71MB Simrad multibeam vendor format
0541_20060331_151653_raw.all.mb56.gz 2.21MB Simrad multibeam vendor format
0542_20060331_153511_raw.all.mb56.gz 7.31MB Simrad multibeam vendor format
0543_20060331_163512_raw.all.mb56.gz 7.27MB Simrad multibeam vendor format
0544_20060331_173512_raw.all.mb56.gz 0.79MB Simrad multibeam vendor format
0545_20060401_001402_raw.all.mb56.gz 7.26MB Simrad multibeam vendor format
0546_20060401_011402_raw.all.mb56.gz 7.38MB Simrad multibeam vendor format
0547_20060401_021402_raw.all.mb56.gz 7.30MB Simrad multibeam vendor format
0548_20060401_031403_raw.all.mb56.gz 7.36MB Simrad multibeam vendor format
0549_20060401_041403_raw.all.mb56.gz 7.29MB Simrad multibeam vendor format
0550_20060401_051404_raw.all.mb56.gz 7.27MB Simrad multibeam vendor format
0551_20060401_061404_raw.all.mb56.gz 7.20MB Simrad multibeam vendor format
0552_20060401_071404_raw.all.mb56.gz 7.12MB Simrad multibeam vendor format
0553_20060401_081405_raw.all.mb56.gz 7.15MB Simrad multibeam vendor format
0554_20060401_091405_raw.all.mb56.gz 7.10MB Simrad multibeam vendor format
0555_20060401_101405_raw.all.mb56.gz 7.07MB Simrad multibeam vendor format
0556_20060401_111406_raw.all.mb56.gz 7.05MB Simrad multibeam vendor format
0557_20060401_121406_raw.all.mb56.gz 7.08MB Simrad multibeam vendor format
0558_20060401_131407_raw.all.mb56.gz 7.01MB Simrad multibeam vendor format
0559_20060401_141407_raw.all.mb56.gz 7.04MB Simrad multibeam vendor format
0560_20060401_151407_raw.all.mb56.gz 7.01MB Simrad multibeam vendor format
0561_20060401_161408_raw.all.mb56.gz 6.96MB Simrad multibeam vendor format
0562_20060401_171408_raw.all.mb56.gz 6.94MB Simrad multibeam vendor format
0563_20060401_181408_raw.all.mb56.gz 6.95MB Simrad multibeam vendor format
0564_20060401_191409_raw.all.mb56.gz 6.95MB Simrad multibeam vendor format
0565_20060401_201409_raw.all.mb56.gz 6.96MB Simrad multibeam vendor format
0566_20060401_211410_raw.all.mb56.gz 6.97MB Simrad multibeam vendor format
0567_20060401_221410_raw.all.mb56.gz 6.77MB Simrad multibeam vendor format
0568_20060401_231410_raw.all.mb56.gz 6.85MB Simrad multibeam vendor format
0569_20060402_001411_raw.all.mb56.gz 6.95MB Simrad multibeam vendor format
0570_20060402_011411_raw.all.mb56.gz 6.91MB Simrad multibeam vendor format
0571_20060402_021411_raw.all.mb56.gz 6.98MB Simrad multibeam vendor format
0572_20060402_031412_raw.all.mb56.gz 1.65MB Simrad multibeam vendor format
0573_20060402_032826_raw.all.mb56.gz 1.39MB Simrad multibeam vendor format
0574_20060402_034055_raw.all.mb56.gz 4.36MB Simrad multibeam vendor format
0575_20060402_041847_raw.all.mb56.gz 6.91MB Simrad multibeam vendor format
0576_20060402_051848_raw.all.mb56.gz 6.88MB Simrad multibeam vendor format
0577_20060402_061848_raw.all.mb56.gz 1.11MB Simrad multibeam vendor format
0579_20060402_062837_raw.all.mb56.gz 6.96MB Simrad multibeam vendor format
0580_20060402_072837_raw.all.mb56.gz 5.50MB Simrad multibeam vendor format
0581_20060402_081534_raw.all.mb56.gz 6.96MB Simrad multibeam vendor format
0582_20060402_091534_raw.all.mb56.gz 442.1KB Simrad multibeam vendor format
0583_20060402_091920_raw.all.mb56.gz 6.91MB Simrad multibeam vendor format
0584_20060402_101920_raw.all.mb56.gz 6.88MB Simrad multibeam vendor format
0585_20060402_111920_raw.all.mb56.gz 1.37MB Simrad multibeam vendor format
0586_20060402_113113_raw.all.mb56.gz 3.92MB Simrad multibeam vendor format
0587_20060402_120520_raw.all.mb56.gz 7.05MB Simrad multibeam vendor format
0588_20060402_130521_raw.all.mb56.gz 7.04MB Simrad multibeam vendor format
0589_20060402_140521_raw.all.mb56.gz 6.55MB Simrad multibeam vendor format
0590_20060402_150210_raw.all.mb56.gz 6.95MB Simrad multibeam vendor format
0591_20060402_160210_raw.all.mb56.gz 319.0KB Simrad multibeam vendor format
0592_20060402_223357_raw.all.mb56.gz 6.99MB Simrad multibeam vendor format
0593_20060402_233358_raw.all.mb56.gz 7.00MB Simrad multibeam vendor format
0594_20060403_003358_raw.all.mb56.gz 7.04MB Simrad multibeam vendor format
0595_20060403_013358_raw.all.mb56.gz 7.02MB Simrad multibeam vendor format
0596_20060403_023359_raw.all.mb56.gz 7.01MB Simrad multibeam vendor format
0597_20060403_033359_raw.all.mb56.gz 7.03MB Simrad multibeam vendor format
0598_20060403_043359_raw.all.mb56.gz 7.00MB Simrad multibeam vendor format
0599_20060403_053400_raw.all.mb56.gz 6.99MB Simrad multibeam vendor format
0600_20060403_063400_raw.all.mb56.gz 7.00MB Simrad multibeam vendor format
0601_20060403_073401_raw.all.mb56.gz 7.02MB Simrad multibeam vendor format
0602_20060403_083401_raw.all.mb56.gz 7.02MB Simrad multibeam vendor format
0603_20060403_093401_raw.all.mb56.gz 7.02MB Simrad multibeam vendor format
0604_20060403_103402_raw.all.mb56.gz 7.02MB Simrad multibeam vendor format
0605_20060403_113402_raw.all.mb56.gz 7.02MB Simrad multibeam vendor format
0606_20060403_123403_raw.all.mb56.gz 6.99MB Simrad multibeam vendor format
0607_20060403_133403_raw.all.mb56.gz 6.99MB Simrad multibeam vendor format
0608_20060403_143403_raw.all.mb56.gz 7.04MB Simrad multibeam vendor format
0609_20060403_153404_raw.all.mb56.gz 7.06MB Simrad multibeam vendor format
0610_20060403_163404_raw.all.mb56.gz 7.07MB Simrad multibeam vendor format
0611_20060403_173404_raw.all.mb56.gz 7.06MB Simrad multibeam vendor format
0612_20060403_183405_raw.all.mb56.gz 7.04MB Simrad multibeam vendor format
0613_20060403_193405_raw.all.mb56.gz 7.03MB Simrad multibeam vendor format
0614_20060403_203406_raw.all.mb56.gz 7.05MB Simrad multibeam vendor format
0615_20060403_213406_raw.all.mb56.gz 7.06MB Simrad multibeam vendor format
0616_20060403_223407_raw.all.mb56.gz 7.04MB Simrad multibeam vendor format
0617_20060403_233407_raw.all.mb56.gz 7.02MB Simrad multibeam vendor format
0618_20060404_003407_raw.all.mb56.gz 7.03MB Simrad multibeam vendor format
0619_20060404_013408_raw.all.mb56.gz 7.03MB Simrad multibeam vendor format
0620_20060404_023408_raw.all.mb56.gz 7.05MB Simrad multibeam vendor format
0621_20060404_033409_raw.all.mb56.gz 7.06MB Simrad multibeam vendor format
0622_20060404_043409_raw.all.mb56.gz 7.05MB Simrad multibeam vendor format
0623_20060404_053409_raw.all.mb56.gz 7.04MB Simrad multibeam vendor format
0624_20060404_063410_raw.all.mb56.gz 7.01MB Simrad multibeam vendor format
0625_20060404_073410_raw.all.mb56.gz 7.05MB Simrad multibeam vendor format
0626_20060404_083410_raw.all.mb56.gz 7.01MB Simrad multibeam vendor format
0627_20060404_093411_raw.all.mb56.gz 7.07MB Simrad multibeam vendor format
0628_20060404_103411_raw.all.mb56.gz 7.03MB Simrad multibeam vendor format
0629_20060404_113412_raw.all.mb56.gz 7.01MB Simrad multibeam vendor format
0630_20060404_123412_raw.all.mb56.gz 7.03MB Simrad multibeam vendor format
0631_20060404_133413_raw.all.mb56.gz 7.01MB Simrad multibeam vendor format
0632_20060404_143413_raw.all.mb56.gz 6.95MB Simrad multibeam vendor format
0633_20060404_153413_raw.all.mb56.gz 6.93MB Simrad multibeam vendor format
0634_20060404_163414_raw.all.mb56.gz 5.34MB Simrad multibeam vendor format
0635_20060404_172025_raw.all.mb56.gz 6.96MB Simrad multibeam vendor format
0636_20060404_182025_raw.all.mb56.gz 6.98MB Simrad multibeam vendor format
0637_20060404_192026_raw.all.mb56.gz 6.96MB Simrad multibeam vendor format
0638_20060404_202026_raw.all.mb56.gz 6.99MB Simrad multibeam vendor format
0639_20060404_212026_raw.all.mb56.gz 6.98MB Simrad multibeam vendor format
0640_20060404_222027_raw.all.mb56.gz 2.98MB Simrad multibeam vendor format
0641_20060404_224611_raw.all.mb56.gz 5.55MB Simrad multibeam vendor format
0642_20060404_233417_raw.all.mb56.gz 6.85MB Simrad multibeam vendor format
0643_20060405_003418_raw.all.mb56.gz 6.85MB Simrad multibeam vendor format
0644_20060405_013418_raw.all.mb56.gz 1.90MB Simrad multibeam vendor format
0645_20060405_015110_raw.all.mb56.gz 2.67MB Simrad multibeam vendor format
0646_20060405_021450_raw.all.mb56.gz 2.31MB Simrad multibeam vendor format
0647_20060405_023502_raw.all.mb56.gz 6.83MB Simrad multibeam vendor format
0648_20060405_033502_raw.all.mb56.gz 6.93MB Simrad multibeam vendor format
0649_20060405_043503_raw.all.mb56.gz 0.94MB Simrad multibeam vendor format
0650_20060405_134155_raw.all.mb56.gz 6.86MB Simrad multibeam vendor format
0651_20060405_144156_raw.all.mb56.gz 7.01MB Simrad multibeam vendor format
0652_20060405_154156_raw.all.mb56.gz 6.96MB Simrad multibeam vendor format
0653_20060405_164156_raw.all.mb56.gz 6.99MB Simrad multibeam vendor format
0654_20060405_174157_raw.all.mb56.gz 7.07MB Simrad multibeam vendor format
0655_20060405_184157_raw.all.mb56.gz 7.09MB Simrad multibeam vendor format
0656_20060405_194157_raw.all.mb56.gz 7.05MB Simrad multibeam vendor format
0657_20060405_204158_raw.all.mb56.gz 7.05MB Simrad multibeam vendor format
0658_20060405_214158_raw.all.mb56.gz 7.07MB Simrad multibeam vendor format
0659_20060405_224159_raw.all.mb56.gz 7.06MB Simrad multibeam vendor format
0660_20060405_234159_raw.all.mb56.gz 7.00MB Simrad multibeam vendor format
0661_20060406_004159_raw.all.mb56.gz 7.02MB Simrad multibeam vendor format
0662_20060406_014200_raw.all.mb56.gz 7.03MB Simrad multibeam vendor format
0663_20060406_024200_raw.all.mb56.gz 7.01MB Simrad multibeam vendor format
0664_20060406_034200_raw.all.mb56.gz 6.98MB Simrad multibeam vendor format
0665_20060406_044201_raw.all.mb56.gz 6.98MB Simrad multibeam vendor format
0666_20060406_054201_raw.all.mb56.gz 6.96MB Simrad multibeam vendor format
0667_20060406_064202_raw.all.mb56.gz 6.76MB Simrad multibeam vendor format
0668_20060406_074202_raw.all.mb56.gz 6.94MB Simrad multibeam vendor format
0669_20060406_084202_raw.all.mb56.gz 7.00MB Simrad multibeam vendor format
0670_20060406_094203_raw.all.mb56.gz 6.97MB Simrad multibeam vendor format
0671_20060406_104203_raw.all.mb56.gz 5.13MB Simrad multibeam vendor format
0672_20060406_112619_raw.all.mb56.gz 4.57MB Simrad multibeam vendor format
0673_20060406_120702_raw.all.mb56.gz 6.92MB Simrad multibeam vendor format
0674_20060406_130702_raw.all.mb56.gz 6.94MB Simrad multibeam vendor format
0675_20060406_140702_raw.all.mb56.gz 3.60MB Simrad multibeam vendor format
0676_20060406_143834_raw.all.mb56.gz 6.93MB Simrad multibeam vendor format
0677_20060406_153835_raw.all.mb56.gz 3.45MB Simrad multibeam vendor format
0678_20060406_160812_raw.all.mb56.gz 5.65MB Simrad multibeam vendor format
0680_20060406_165645_raw.all.mb56.gz 6.80MB Simrad multibeam vendor format
0681_20060406_175645_raw.all.mb56.gz 6.77MB Simrad multibeam vendor format
0682_20060406_185645_raw.all.mb56.gz 57.7KB Simrad multibeam vendor format
0683_20060406_185719_raw.all.mb56.gz 6.83MB Simrad multibeam vendor format
0684_20060406_195719_raw.all.mb56.gz 4.09MB Simrad multibeam vendor format
0686_20060406_203233_raw.all.mb56.gz 6.89MB Simrad multibeam vendor format
0687_20060406_213234_raw.all.mb56.gz 6.96MB Simrad multibeam vendor format
0688_20060406_223234_raw.all.mb56.gz 6.91MB Simrad multibeam vendor format
0689_20060406_233234_raw.all.mb56.gz 6.95MB Simrad multibeam vendor format
0690_20060407_003235_raw.all.mb56.gz 1.28MB Simrad multibeam vendor format
0691_20060407_071845_raw.all.mb56.gz 6.84MB Simrad multibeam vendor format
0692_20060407_081845_raw.all.mb56.gz 6.91MB Simrad multibeam vendor format
0693_20060407_091845_raw.all.mb56.gz 6.89MB Simrad multibeam vendor format
0694_20060407_101846_raw.all.mb56.gz 6.96MB Simrad multibeam vendor format
0695_20060407_111846_raw.all.mb56.gz 6.94MB Simrad multibeam vendor format
0696_20060407_121847_raw.all.mb56.gz 6.99MB Simrad multibeam vendor format
0697_20060407_131847_raw.all.mb56.gz 6.99MB Simrad multibeam vendor format
0698_20060407_141847_raw.all.mb56.gz 6.97MB Simrad multibeam vendor format
0699_20060407_151848_raw.all.mb56.gz 7.02MB Simrad multibeam vendor format
0700_20060407_161848_raw.all.mb56.gz 6.98MB Simrad multibeam vendor format
0701_20060407_171849_raw.all.mb56.gz 294.5KB Simrad multibeam vendor format
0702_20060407_172119_raw.all.mb56.gz 226.1KB Simrad multibeam vendor format
0703_20060407_172400_raw.all.mb56.gz 7.00MB Simrad multibeam vendor format
0704_20060407_182401_raw.all.mb56.gz 7.00MB Simrad multibeam vendor format
0705_20060407_192401_raw.all.mb56.gz 2.88MB Simrad multibeam vendor format
0706_20060407_194845_raw.all.mb56.gz 5.78MB Simrad multibeam vendor format
0707_20060407_203933_raw.all.mb56.gz 6.93MB Simrad multibeam vendor format
0708_20060407_213933_raw.all.mb56.gz 7.01MB Simrad multibeam vendor format
0709_20060407_223934_raw.all.mb56.gz 1.73MB Simrad multibeam vendor format
0710_20060407_225428_raw.all.mb56.gz 6.97MB Simrad multibeam vendor format
0711_20060407_235428_raw.all.mb56.gz 3.83MB Simrad multibeam vendor format
0712_20060408_002716_raw.all.mb56.gz 4.16MB Simrad multibeam vendor format
0713_20060408_010306_raw.all.mb56.gz 6.93MB Simrad multibeam vendor format
0714_20060408_020307_raw.all.mb56.gz 7.00MB Simrad multibeam vendor format
0715_20060408_030307_raw.all.mb56.gz 1.27MB Simrad multibeam vendor format
0716_20060408_031419_raw.all.mb56.gz 5.50MB Simrad multibeam vendor format
0717_20060408_040141_raw.all.mb56.gz 6.93MB Simrad multibeam vendor format
0718_20060408_050141_raw.all.mb56.gz 6.94MB Simrad multibeam vendor format
0719_20060408_060142_raw.all.mb56.gz 3.93MB Simrad multibeam vendor format
0720_20060408_063541_raw.all.mb56.gz 6.96MB Simrad multibeam vendor format
0721_20060408_073542_raw.all.mb56.gz 0.54MB Simrad multibeam vendor format
0723_20060408_145013_raw.all.mb56.gz 6.85MB Simrad multibeam vendor format
0724_20060408_155013_raw.all.mb56.gz 6.97MB Simrad multibeam vendor format
0725_20060408_165014_raw.all.mb56.gz 7.03MB Simrad multibeam vendor format
0726_20060408_175014_raw.all.mb56.gz 6.96MB Simrad multibeam vendor format
0727_20060408_185015_raw.all.mb56.gz 6.96MB Simrad multibeam vendor format
0728_20060408_195015_raw.all.mb56.gz 7.01MB Simrad multibeam vendor format
0729_20060408_205015_raw.all.mb56.gz 6.95MB Simrad multibeam vendor format
0730_20060408_215016_raw.all.mb56.gz 6.92MB Simrad multibeam vendor format
0731_20060408_225016_raw.all.mb56.gz 6.98MB Simrad multibeam vendor format
0732_20060408_235017_raw.all.mb56.gz 6.94MB Simrad multibeam vendor format
0733_20060409_005017_raw.all.mb56.gz 6.98MB Simrad multibeam vendor format
0734_20060409_015017_raw.all.mb56.gz 6.93MB Simrad multibeam vendor format
0735_20060409_025018_raw.all.mb56.gz 6.86MB Simrad multibeam vendor format
0736_20060409_035018_raw.all.mb56.gz 0.59MB Simrad multibeam vendor format
0737_20060409_190459_raw.all.mb56.gz 6.76MB Simrad multibeam vendor format
0738_20060409_200459_raw.all.mb56.gz 6.85MB Simrad multibeam vendor format
0739_20060409_210500_raw.all.mb56.gz 6.94MB Simrad multibeam vendor format
0740_20060409_220500_raw.all.mb56.gz 6.94MB Simrad multibeam vendor format
0741_20060409_230501_raw.all.mb56.gz 6.93MB Simrad multibeam vendor format
0742_20060410_000501_raw.all.mb56.gz 6.85MB Simrad multibeam vendor format
0743_20060410_010501_raw.all.mb56.gz 6.92MB Simrad multibeam vendor format
0744_20060410_020502_raw.all.mb56.gz 6.86MB Simrad multibeam vendor format
0745_20060410_030502_raw.all.mb56.gz 6.86MB Simrad multibeam vendor format
0746_20060410_040502_raw.all.mb56.gz 6.92MB Simrad multibeam vendor format
0747_20060410_050503_raw.all.mb56.gz 6.93MB Simrad multibeam vendor format
0748_20060410_060503_raw.all.mb56.gz 6.87MB Simrad multibeam vendor format
0749_20060410_070504_raw.all.mb56.gz 6.90MB Simrad multibeam vendor format
0750_20060410_080504_raw.all.mb56.gz 6.90MB Simrad multibeam vendor format
0751_20060410_090504_raw.all.mb56.gz 6.89MB Simrad multibeam vendor format
0752_20060410_100505_raw.all.mb56.gz 6.89MB Simrad multibeam vendor format
0753_20060410_110505_raw.all.mb56.gz 6.89MB Simrad multibeam vendor format
0754_20060410_120505_raw.all.mb56.gz 6.84MB Simrad multibeam vendor format
0755_20060410_130506_raw.all.mb56.gz 6.85MB Simrad multibeam vendor format
0756_20060410_140506_raw.all.mb56.gz 6.85MB Simrad multibeam vendor format
0757_20060410_150507_raw.all.mb56.gz 6.83MB Simrad multibeam vendor format
0758_20060410_160507_raw.all.mb56.gz 6.89MB Simrad multibeam vendor format
0759_20060410_170508_raw.all.mb56.gz 6.86MB Simrad multibeam vendor format
0760_20060410_180508_raw.all.mb56.gz 6.84MB Simrad multibeam vendor format
0761_20060410_190508_raw.all.mb56.gz 6.94MB Simrad multibeam vendor format
0762_20060410_200509_raw.all.mb56.gz 6.91MB Simrad multibeam vendor format
0763_20060410_210509_raw.all.mb56.gz 6.76MB Simrad multibeam vendor format
0764_20060410_220510_raw.all.mb56.gz 6.62MB Simrad multibeam vendor format
0765_20060410_230510_raw.all.mb56.gz 6.79MB Simrad multibeam vendor format
0766_20060411_000510_raw.all.mb56.gz 6.75MB Simrad multibeam vendor format
0767_20060411_010511_raw.all.mb56.gz 6.91MB Simrad multibeam vendor format
0768_20060411_020511_raw.all.mb56.gz 6.92MB Simrad multibeam vendor format
0769_20060411_030511_raw.all.mb56.gz 6.84MB Simrad multibeam vendor format
0770_20060411_040512_raw.all.mb56.gz 6.83MB Simrad multibeam vendor format
0771_20060411_050512_raw.all.mb56.gz 6.80MB Simrad multibeam vendor format
0772_20060411_060513_raw.all.mb56.gz 6.83MB Simrad multibeam vendor format
0773_20060411_070513_raw.all.mb56.gz 6.81MB Simrad multibeam vendor format
0774_20060411_080513_raw.all.mb56.gz 6.84MB Simrad multibeam vendor format
0775_20060411_090514_raw.all.mb56.gz 6.86MB Simrad multibeam vendor format
0776_20060411_100514_raw.all.mb56.gz 6.83MB Simrad multibeam vendor format
0777_20060411_110515_raw.all.mb56.gz 6.86MB Simrad multibeam vendor format
0778_20060411_120515_raw.all.mb56.gz 6.89MB Simrad multibeam vendor format
0779_20060411_130515_raw.all.mb56.gz 6.87MB Simrad multibeam vendor format
0780_20060411_140516_raw.all.mb56.gz 6.88MB Simrad multibeam vendor format
0781_20060411_150516_raw.all.mb56.gz 6.88MB Simrad multibeam vendor format
0782_20060411_160517_raw.all.mb56.gz 6.89MB Simrad multibeam vendor format
0783_20060411_170517_raw.all.mb56.gz 6.88MB Simrad multibeam vendor format
0784_20060411_180517_raw.all.mb56.gz 6.86MB Simrad multibeam vendor format
0785_20060411_190518_raw.all.mb56.gz 6.87MB Simrad multibeam vendor format
0786_20060411_200518_raw.all.mb56.gz 6.93MB Simrad multibeam vendor format
0787_20060411_210519_raw.all.mb56.gz 6.90MB Simrad multibeam vendor format
0788_20060411_220519_raw.all.mb56.gz 6.88MB Simrad multibeam vendor format
0789_20060411_230520_raw.all.mb56.gz 6.84MB Simrad multibeam vendor format
0790_20060412_000520_raw.all.mb56.gz 6.88MB Simrad multibeam vendor format
0791_20060412_010520_raw.all.mb56.gz 6.78MB Simrad multibeam vendor format
0792_20060412_020521_raw.all.mb56.gz 6.86MB Simrad multibeam vendor format
0793_20060412_030521_raw.all.mb56.gz 6.90MB Simrad multibeam vendor format
0794_20060412_040521_raw.all.mb56.gz 6.77MB Simrad multibeam vendor format
0795_20060412_050522_raw.all.mb56.gz 6.88MB Simrad multibeam vendor format
0796_20060412_060522_raw.all.mb56.gz 1.01MB Simrad multibeam vendor format
0797_20060412_061534_raw.all.mb56.gz 6.80MB Simrad multibeam vendor format
0798_20060412_071535_raw.all.mb56.gz 6.80MB Simrad multibeam vendor format
0799_20060412_081535_raw.all.mb56.gz 6.83MB Simrad multibeam vendor format
0800_20060412_091536_raw.all.mb56.gz 6.84MB Simrad multibeam vendor format
0801_20060412_101536_raw.all.mb56.gz 6.86MB Simrad multibeam vendor format
0802_20060412_111536_raw.all.mb56.gz 6.83MB Simrad multibeam vendor format
0803_20060412_121537_raw.all.mb56.gz 6.87MB Simrad multibeam vendor format
0804_20060412_131537_raw.all.mb56.gz 6.81MB Simrad multibeam vendor format
0805_20060412_141538_raw.all.mb56.gz 6.82MB Simrad multibeam vendor format
0806_20060412_151538_raw.all.mb56.gz 6.84MB Simrad multibeam vendor format
0807_20060412_161538_raw.all.mb56.gz 6.81MB Simrad multibeam vendor format
0808_20060412_171539_raw.all.mb56.gz 6.85MB Simrad multibeam vendor format
0809_20060412_181539_raw.all.mb56.gz 6.84MB Simrad multibeam vendor format
0810_20060412_191539_raw.all.mb56.gz 281.7KB Simrad multibeam vendor format
0811_20060412_191832_raw.all.mb56.gz 6.81MB Simrad multibeam vendor format
0812_20060412_201832_raw.all.mb56.gz 7.14MB Simrad multibeam vendor format
0813_20060412_211833_raw.all.mb56.gz 7.42MB Simrad multibeam vendor format
0814_20060412_221833_raw.all.mb56.gz 7.28MB Simrad multibeam vendor format
0815_20060412_231833_raw.all.mb56.gz 7.68MB Simrad multibeam vendor format
0816_20060413_001834_raw.all.mb56.gz 7.68MB Simrad multibeam vendor format
0817_20060413_011309_raw.all.mb56.gz 4.28MB Simrad multibeam vendor format
0818_20060413_014657_raw.all.mb56.gz 1.60MB Simrad multibeam vendor format
0819_20060413_022601_raw.all.mb56.gz 2.38MB Simrad multibeam vendor format
0820_20060413_032426_raw.all.mb56.gz 7.42MB Simrad multibeam vendor format
0821_20060413_042426_raw.all.mb56.gz 7.21MB Simrad multibeam vendor format
0822_20060413_052426_raw.all.mb56.gz 7.06MB Simrad multibeam vendor format
0823_20060413_062427_raw.all.mb56.gz 6.89MB Simrad multibeam vendor format
0824_20060413_072427_raw.all.mb56.gz 3.94MB Simrad multibeam vendor format
0825_20060413_082428_raw.all.mb56.gz 4.07MB Simrad multibeam vendor format
0826_20060413_092428_raw.all.mb56.gz 4.38MB Simrad multibeam vendor format
0827_20060413_102429_raw.all.mb56.gz 5.41MB Simrad multibeam vendor format
0828_20060413_112429_raw.all.mb56.gz 4.66MB Simrad multibeam vendor format
0829_20060413_122429_raw.all.mb56.gz 4.48MB Simrad multibeam vendor format
0830_20060413_132430_raw.all.mb56.gz 10.04MB Simrad multibeam vendor format
0831_20060413_142430_raw.all.mb56.gz 2.89MB Simrad multibeam vendor format

Metadata Files: 1

Files File Size Description
AMAT03RR_Multibeam.xml NGDC created ISO metadata

Ancillary Files: 1

Files File Size Description
xbt.tar.gz 0.51MB Expendable Bathythermograph (XBT) data